Time,TemperatureF,DewpointF,PressureIn,WindDirection,WindDirectionDegrees,WindSpeedMPH,WindSpeedGustMPH,Humidity,HourlyPrecipIn,Conditions,Clouds,dailyrainin,SoftwareType,DateUTC
2013-07-07 00:02:00,64.2,49.6,29.72,WNW,285,2.0,4.0,59,0.00,,,0.00,LWC V2.00 B2112,2013-07-07 07:02:00,
2013-07-07 00:07:00,65.0,47.9,29.72,West,270,2.0,6.0,54,0.00,,,0.00,LWC V2.00 B2112,2013-07-07 07:07:00,
2013-07-07 00:12:00,64.5,49.8,29.72,West,274,1.0,6.0,59,0.00,,,0.00,LWC V2.00 B2112,2013-07-07 07:12:00,
2013-07-07 00:17:00,64.5,48.0,29.72,West,274,0.0,2.0,55,0.00,,,0.00,LWC V2.00 B2112,2013-07-07 07:17:00,
2013-07-07 00:22:00,64.0,49.4,29.72,West,275,0.0,0.0,59,0.00,,,0.00,LWC V2.00 B2112,2013-07-07 07:22:00,
2013-07-07 00:27:00,63.7,50.0,29.72,West,278,2.0,6.0,61,0.00,,,0.00,LWC V2.00 B2112,2013-07-07 07:27:00,
2013-07-07 00:32:00,64.0,48.0,29.72,West,278,0.0,6.0,56,0.00,,,0.00,LWC V2.00 B2112,2013-07-07 07:32:00,
2013-07-07 00:37:00,63.4,51.0,29.72,West,278,0.0,4.0,64,0.00,,,0.00,LWC V2.00 B2112,2013-07-07 07:37:00,
2013-07-07 00:41:00,63.9,48.4,29.72,WSW,256,4.0,8.0,57,0.00,,,0.00,LWC V2.00 B2112,2013-07-07 07:41:00,
2013-07-07 00:46:00,63.9,48.8,29.73,WSW,256,2.0,4.0,58,0.00,,,0.00,LWC V2.00 B2112,2013-07-07 07:46:00,
2013-07-07 00:51:00,64.2,48.2,29.73,WNW,292,6.0,6.0,56,0.00,,,0.00,LWC V2.00 B2112,2013-07-07 07:51:00,
2013-07-07 00:56:00,63.9,49.3,29.73,NW,308,4.0,4.0,59,0.00,,,0.00,LWC V2.00 B2112,2013-07-07 07:56:00,
2013-07-07 01:01:00,64.2,48.2,29.73,WNW,284,6.0,7.0,56,0.00,,,0.00,LWC V2.00 B2112,2013-07-07 08:01:00,
2013-07-07 01:06:00,64.0,48.0,29.73,West,271,0.0,6.0,56,0.00,,,0.00,LWC V2.00 B2112,2013-07-07 08:06:00,
2013-07-07 01:11:00,64.5,48.0,29.73,West,261,8.0,8.0,55,0.00,,,0.00,LWC V2.00 B2112,2013-07-07 08:11:00,
2013-07-07 01:16:00,64.3,48.3,29.72,West,267,2.0,7.0,56,0.00,,,0.00,LWC V2.00 B2112,2013-07-07 08:16:00,
2013-07-07 01:21:00,64.0,47.5,29.72,WNW,289,6.0,8.0,55,0.00,,,0.00,LWC V2.00 B2112,2013-07-07 08:21:00,
2013-07-07 01:26:00,64.0,47.5,29.72,WNW,302,4.0,8.0,55,0.00,,,0.00,LWC V2.00 B2112,2013-07-07 08:26:00,
2013-07-07 01:31:00,63.7,49.1,29.73,WNW,294,2.0,4.0,59,0.00,,,0.00,LWC V2.00 B2112,2013-07-07 08:31:00,
2013-07-07 01:36:00,63.2,49.1,29.73,West,270,0.0,6.0,60,0.00,,,0.00,LWC V2.00 B2112,2013-07-07 08:36:00,
2013-07-07 01:41:00,62.4,48.3,29.73,West,270,0.0,1.0,60,0.00,,,0.00,LWC V2.00 B2112,2013-07-07 08:41:00,
2013-07-07 01:46:00,61.8,48.6,29.73,West,270,0.0,0.0,62,0.00,,,0.00,LWC V2.00 B2112,2013-07-07 08:46:00,
2013-07-07 01:51:00,61.5,48.4,29.73,West,270,2.0,4.0,62,0.00,,,0.00,LWC V2.00 B2112,2013-07-07 08:51:00,
2013-07-07 01:56:00,62.1,47.6,29.73,WNW,295,2.0,7.0,59,0.00,,,0.00,LWC V2.00 B2112,2013-07-07 08:56:00,
2013-07-07 02:01:00,62.3,47.8,29.73,NW,308,6.0,6.0,59,0.00,,,0.00,LWC V2.00 B2112,2013-07-07 09:01:00,
2013-07-07 02:06:00,62.4,47.9,29.73,WNW,292,1.0,7.0,59,0.00,,,0.00,LWC V2.00 B2112,2013-07-07 09:06:00,
2013-07-07 02:11:00,62.3,49.1,29.73,WNW,289,0.0,1.0,62,0.00,,,0.00,LWC V2.00 B2112,2013-07-07 09:11:00,
2013-07-07 02:16:00,61.8,47.8,29.74,WNW,287,4.0,8.0,60,0.00,,,0.00,LWC V2.00 B2112,2013-07-07 09:16:00,
2013-07-07 02:21:00,62.3,48.2,29.74,WNW,302,6.0,8.0,60,0.00,,,0.00,LWC V2.00 B2112,2013-07-07 09:21:00,
2013-07-07 02:26:00,62.4,47.9,29.74,West,274,7.0,8.0,59,0.00,,,0.00,LWC V2.00 B2112,2013-07-07 09:26:00,
2013-07-07 02:31:00,62.4,47.9,29.74,West,274,7.0,8.0,59,0.00,,,0.00,LWC V2.00 B2112,2013-07-07 09:31:00,
2013-07-07 02:36:00,62.3,48.2,29.74,West,281,4.0,7.0,60,0.00,,,0.00,LWC V2.00 B2112,2013-07-07 09:36:00,
2013-07-07 02:41:00,61.8,49.1,29.74,West,281,0.0,0.0,63,0.00,,,0.00,LWC V2.00 B2112,2013-07-07 09:41:00,
2013-07-07 02:46:00,61.6,48.4,29.74,West,280,2.0,6.0,62,0.00,,,0.00,LWC V2.00 B2112,2013-07-07 09:46:00,
2013-07-07 02:51:00,62.0,47.0,29.74,WNW,282,4.0,9.0,58,0.00,,,0.00,LWC V2.00 B2112,2013-07-07 09:51:00,
2013-07-07 02:56:00,61.6,48.4,29.74,WNW,299,4.0,6.0,62,0.00,,,0.00,LWC V2.00 B2112,2013-07-07 09:56:00,
2013-07-07 03:01:00,61.8,48.2,29.74,WNW,287,4.0,6.0,61,0.00,,,0.00,LWC V2.00 B2112,2013-07-07 10:01:00,
2013-07-07 03:06:00,61.6,48.0,29.74,WNW,284,6.0,7.0,61,0.00,,,0.00,LWC V2.00 B2112,2013-07-07 10:06:00,
2013-07-07 03:11:00,61.3,48.2,29.74,West,271,6.0,8.0,62,0.00,,,0.00,LWC V2.00 B2112,2013-07-07 10:11:00,
2013-07-07 03:16:00,61.3,47.7,29.74,West,270,2.0,7.0,61,0.00,,,0.00,LWC V2.00 B2112,2013-07-07 10:16:00,
2013-07-07 03:21:00,61.2,48.1,29.74,West,264,6.0,7.0,62,0.00,,,0.00,LWC V2.00 B2112,2013-07-07 10:21:00,
2013-07-07 03:26:00,61.2,47.2,29.74,West,277,4.0,6.0,60,0.00,,,0.00,LWC V2.00 B2112,2013-07-07 10:26:00,
2013-07-07 03:31:00,61.0,48.3,29.74,West,274,6.0,6.0,63,0.00,,,0.00,LWC V2.00 B2112,2013-07-07 10:31:00,
2013-07-07 03:36:00,60.9,47.8,29.74,West,274,7.0,7.0,62,0.00,,,0.00,LWC V2.00 B2112,2013-07-07 10:36:00,
2013-07-07 03:41:00,60.5,48.7,29.74,WNW,282,2.0,7.0,65,0.00,,,0.00,LWC V2.00 B2112,2013-07-07 10:41:00,
2013-07-07 03:46:00,60.4,48.6,29.74,WNW,295,2.0,7.0,65,0.00,,,0.00,LWC V2.00 B2112,2013-07-07 10:46:00,
2013-07-07 03:51:00,60.2,47.1,29.74,WNW,285,2.0,6.0,62,0.00,,,0.00,LWC V2.00 B2112,2013-07-07 10:51:00,
2013-07-07 03:56:00,60.1,47.9,29.74,WNW,287,4.0,6.0,64,0.00,,,0.00,LWC V2.00 B2112,2013-07-07 10:56:00,
2013-07-07 04:01:00,60.1,47.5,29.74,NW,306,6.0,7.0,63,0.00,,,0.00,LWC V2.00 B2112,2013-07-07 11:01:00,
2013-07-07 04:06:00,59.9,47.7,29.74,West,271,4.0,7.0,64,0.00,,,0.00,LWC V2.00 B2112,2013-07-07 11:06:00,
2013-07-07 04:11:00,60.1,47.0,29.74,West,268,2.0,7.0,62,0.00,,,0.00,LWC V2.00 B2112,2013-07-07 11:11:00,
2013-07-07 04:16:00,59.8,48.0,29.74,West,274,6.0,6.0,65,0.00,,,0.00,LWC V2.00 B2112,2013-07-07 11:16:00,
2013-07-07 04:21:00,59.5,47.7,29.74,NW,309,10.0,10.0,65,0.00,,,0.00,LWC V2.00 B2112,2013-07-07 11:21:00,
2013-07-07 04:26:00,59.5,47.7,29.74,West,272,8.0,9.0,65,0.00,,,0.00,LWC V2.00 B2112,2013-07-07 11:26:00,
2013-07-07 04:31:00,59.9,47.3,29.75,West,275,6.0,9.0,63,0.00,,,0.00,LWC V2.00 B2112,2013-07-07 11:31:00,
2013-07-07 04:36:00,59.8,48.4,29.75,WNW,296,6.0,7.0,66,0.00,,,0.00,LWC V2.00 B2112,2013-07-07 11:36:00,
2013-07-07 04:41:00,59.3,47.5,29.75,West,275,7.0,9.0,65,0.00,,,0.00,LWC V2.00 B2112,2013-07-07 11:41:00,
2013-07-07 04:46:00,59.5,47.7,29.75,West,265,7.0,8.0,65,0.00,,,0.00,LWC V2.00 B2112,2013-07-07 11:46:00,
2013-07-07 04:51:00,59.5,47.3,29.75,West,275,9.0,9.0,64,0.00,,,0.00,LWC V2.00 B2112,2013-07-07 11:51:00,
2013-07-07 04:56:00,59.3,47.5,29.75,West,280,7.0,8.0,65,0.00,,,0.00,LWC V2.00 B2112,2013-07-07 11:56:00,
2013-07-07 05:01:00,59.2,47.4,29.76,WNW,295,6.0,8.0,65,0.00,,,0.00,LWC V2.00 B2112,2013-07-07 12:01:00,
2013-07-07 05:06:00,59.0,48.1,29.76,WSW,256,6.0,9.0,67,0.00,,,0.00,LWC V2.00 B2112,2013-07-07 12:06:00,
2013-07-07 05:11:00,59.2,47.4,29.76,WNW,292,6.0,8.0,65,0.00,,,0.00,LWC V2.00 B2112,2013-07-07 12:11:00,
2013-07-07 05:16:00,58.9,47.6,29.76,West,267,1.0,7.0,66,0.00,,,0.00,LWC V2.00 B2112,2013-07-07 12:16:00,
2013-07-07 05:21:00,58.6,47.7,29.76,West,277,2.0,8.0,67,0.00,,,0.00,LWC V2.00 B2112,2013-07-07 12:21:00,
2013-07-07 05:26:00,58.6,47.7,29.76,West,280,6.0,7.0,67,0.00,,,0.00,LWC V2.00 B2112,2013-07-07 12:26:00,
2013-07-07 05:31:00,58.6,47.7,29.76,West,278,6.0,6.0,67,0.00,,,0.00,LWC V2.00 B2112,2013-07-07 12:31:00,
2013-07-07 05:36:00,58.9,47.6,29.76,WNW,298,6.0,8.0,66,0.00,,,0.00,LWC V2.00 B2112,2013-07-07 12:36:00,
2013-07-07 05:41:00,59.0,48.1,29.76,West,277,10.0,10.0,67,0.00,,,0.00,LWC V2.00 B2112,2013-07-07 12:41:00,
2013-07-07 05:46:00,58.9,48.7,29.77,West,275,6.0,6.0,69,0.00,,,0.00,LWC V2.00 B2112,2013-07-07 12:46:00,
2013-07-07 05:51:00,58.9,47.6,29.77,West,260,6.0,8.0,66,0.00,,,0.00,LWC V2.00 B2112,2013-07-07 12:51:00,
2013-07-07 05:56:00,58.7,48.2,29.77,West,280,6.0,8.0,68,0.00,,,0.00,LWC V2.00 B2112,2013-07-07 12:56:00,
2013-07-07 06:01:00,58.6,47.7,29.77,WNW,302,2.0,8.0,67,0.00,,,0.00,LWC V2.00 B2112,2013-07-07 13:01:00,
2013-07-07 06:06:00,58.6,47.3,29.77,NW,309,4.0,8.0,66,0.00,,,0.00,LWC V2.00 B2112,2013-07-07 13:06:00,
2013-07-07 06:11:00,58.3,48.6,29.77,WNW,299,2.0,6.0,70,0.00,,,0.00,LWC V2.00 B2112,2013-07-07 13:11:00,
2013-07-07 06:16:00,58.3,47.8,29.77,NW,304,7.0,9.0,68,0.00,,,0.00,LWC V2.00 B2112,2013-07-07 13:16:00,
2013-07-07 06:21:00,58.4,47.1,29.77,WNW,299,4.0,9.0,66,0.00,,,0.00,LWC V2.00 B2112,2013-07-07 13:21:00,
2013-07-07 06:26:00,58.7,48.6,29.77,WNW,291,7.0,7.0,69,0.00,,,0.00,LWC V2.00 B2112,2013-07-07 13:26:00,
2013-07-07 06:31:00,58.6,48.8,29.77,West,280,4.0,7.0,70,0.00,,,0.00,LWC V2.00 B2112,2013-07-07 13:31:00,
2013-07-07 06:36:00,58.6,47.3,29.77,West,274,4.0,6.0,66,0.00,,,0.00,LWC V2.00 B2112,2013-07-07 13:36:00,
2013-07-07 06:41:00,58.6,47.7,29.77,West,278,2.0,7.0,67,0.00,,,0.00,LWC V2.00 B2112,2013-07-07 13:41:00,
2013-07-07 06:46:00,58.6,48.1,29.77,West,271,7.0,7.0,68,0.00,,,0.00,LWC V2.00 B2112,2013-07-07 13:46:00,
2013-07-07 06:51:00,58.9,48.0,29.77,West,278,4.0,7.0,67,0.00,,,0.00,LWC V2.00 B2112,2013-07-07 13:51:00,
2013-07-07 06:56:00,59.2,47.4,29.77,WNW,295,4.0,8.0,65,0.00,,,0.00,LWC V2.00 B2112,2013-07-07 13:56:00,
2013-07-07 07:01:00,59.8,47.6,29.77,West,281,4.0,8.0,64,0.00,,,0.00,LWC V2.00 B2112,2013-07-07 14:01:00,
2013-07-07 07:06:00,60.2,47.6,29.77,WNW,288,7.0,8.0,63,0.00,,,0.00,LWC V2.00 B2112,2013-07-07 14:06:00,
2013-07-07 07:11:00,60.9,47.8,29.77,WNW,285,6.0,7.0,62,0.00,,,0.00,LWC V2.00 B2112,2013-07-07 14:11:00,
2013-07-07 07:16:00,61.3,48.6,29.78,WNW,291,2.0,7.0,63,0.00,,,0.00,LWC V2.00 B2112,2013-07-07 14:16:00,
2013-07-07 07:21:00,61.8,49.1,29.78,WNW,287,6.0,8.0,63,0.00,,,0.00,LWC V2.00 B2112,2013-07-07 14:21:00,
2013-07-07 07:26:00,62.4,49.2,29.78,WNW,285,2.0,6.0,62,0.00,,,0.00,LWC V2.00 B2112,2013-07-07 14:26:00,
2013-07-07 07:31:00,63.1,48.5,29.78,WNW,288,0.0,2.0,59,0.00,,,0.00,LWC V2.00 B2112,2013-07-07 14:31:00,
2013-07-07 07:36:00,63.5,48.9,29.78,WNW,288,0.0,0.0,59,0.00,,,0.00,LWC V2.00 B2112,2013-07-07 14:36:00,
2013-07-07 07:41:00,63.9,48.8,29.78,WNW,288,0.0,2.0,58,0.00,,,0.00,LWC V2.00 B2112,2013-07-07 14:41:00,
2013-07-07 07:46:00,63.9,49.3,29.78,WNW,288,0.0,0.0,59,0.00,,,0.00,LWC V2.00 B2112,2013-07-07 14:46:00,
2013-07-07 07:51:00,64.5,49.8,29.78,WNW,288,0.0,0.0,59,0.00,,,0.00,LWC V2.00 B2112,2013-07-07 14:51:00,
2013-07-07 07:56:00,64.8,49.2,29.78,WNW,288,2.0,6.0,57,0.00,,,0.00,LWC V2.00 B2112,2013-07-07 14:56:00,
2013-07-07 08:01:00,64.8,48.7,29.78,WNW,288,0.0,2.0,56,0.00,,,0.00,LWC V2.00 B2112,2013-07-07 15:01:00,
2013-07-07 08:06:00,64.8,49.2,29.78,SE,136,0.0,1.0,57,0.00,,,0.00,LWC V2.00 B2112,2013-07-07 15:06:00,
2013-07-07 08:11:00,65.2,50.0,29.78,SE,136,0.0,0.0,58,0.00,,,0.00,LWC V2.00 B2112,2013-07-07 15:11:00,
2013-07-07 08:16:00,65.6,52.2,29.79,SE,136,0.0,1.0,62,0.00,,,0.00,LWC V2.00 B2112,2013-07-07 15:16:00,
2013-07-07 08:21:00,66.4,51.2,29.79,NNW,340,2.0,7.0,58,0.00,,,0.00,LWC V2.00 B2112,2013-07-07 15:21:00,
2013-07-07 08:26:00,66.9,48.7,29.79,NNW,332,0.0,4.0,52,0.00,,,0.00,LWC V2.00 B2112,2013-07-07 15:26:00,
2013-07-07 08:31:00,67.4,52.1,29.78,NNW,329,1.0,6.0,58,0.00,,,0.00,LWC V2.00 B2112,2013-07-07 15:31:00,
2013-07-07 08:36:00,68.1,49.8,29.78,NNW,328,1.0,4.0,52,0.00,,,0.00,LWC V2.00 B2112,2013-07-07 15:36:00,
2013-07-07 08:41:00,68.8,52.5,29.78,NW,326,0.0,0.0,56,0.00,,,0.00,LWC V2.00 B2112,2013-07-07 15:41:00,
2013-07-07 08:46:00,69.9,53.0,29.77,NW,326,0.0,1.0,55,0.00,,,0.00,LWC V2.00 B2112,2013-07-07 15:46:00,
2013-07-07 08:51:00,71.1,51.5,29.77,NW,326,0.0,1.0,50,0.00,,,0.00,LWC V2.00 B2112,2013-07-07 15:51:00,
2013-07-07 08:56:00,71.6,54.1,29.77,NW,326,0.0,1.0,54,0.00,,,0.00,LWC V2.00 B2112,2013-07-07 15:56:00,
2013-07-07 09:01:00,72.0,51.2,29.77,NW,326,0.0,1.0,48,0.00,,,0.00,LWC V2.00 B2112,2013-07-07 16:01:00,
2013-07-07 09:06:00,72.7,49.5,29.77,NW,326,0.0,0.0,44,0.00,,,0.00,LWC V2.00 B2112,2013-07-07 16:06:00,
2013-07-07 09:11:00,74.2,55.4,29.77,NW,326,0.0,0.0,52,0.00,,,0.00,LWC V2.00 B2112,2013-07-07 16:11:00,
2013-07-07 09:16:00,74.9,50.2,29.76,NW,326,0.0,0.0,42,0.00,,,0.00,LWC V2.00 B2112,2013-07-07 16:16:00,
2013-07-07 09:21:00,75.8,51.7,29.76,NW,326,0.0,0.0,43,0.00,,,0.00,LWC V2.00 B2112,2013-07-07 16:21:00,
2013-07-07 09:26:00,76.1,55.5,29.76,NW,326,0.0,1.0,49,0.00,,,0.00,LWC V2.00 B2112,2013-07-07 16:26:00,
2013-07-07 09:31:00,76.0,51.2,29.75,NW,326,0.0,1.0,42,0.00,,,0.00,LWC V2.00 B2112,2013-07-07 16:31:00,
2013-07-07 09:36:00,75.8,51.7,29.75,NW,326,0.0,0.0,43,0.00,,,0.00,LWC V2.00 B2112,2013-07-07 16:36:00,
2013-07-07 09:41:00,75.6,50.9,29.75,NW,326,0.0,0.0,42,0.00,,,0.00,LWC V2.00 B2112,2013-07-07 16:41:00,
2013-07-07 09:46:00,74.9,57.6,29.75,NW,326,0.0,0.0,55,0.00,,,0.00,LWC V2.00 B2112,2013-07-07 16:46:00,
2013-07-07 09:51:00,74.6,51.8,29.75,NW,326,0.0,1.0,45,0.00,,,0.00,LWC V2.00 B2112,2013-07-07 16:51:00,
2013-07-07 09:56:00,74.7,49.4,29.75,NNW,340,1.0,1.0,41,0.00,,,0.00,LWC V2.00 B2112,2013-07-07 16:56:00,
2013-07-07 10:01:00,75.3,52.5,29.75,NNW,342,0.0,1.0,45,0.00,,,0.00,LWC V2.00 B2112,2013-07-07 17:01:00,
2013-07-07 10:06:00,75.6,53.3,29.75,NNW,343,0.0,1.0,46,0.00,,,0.00,LWC V2.00 B2112,2013-07-07 17:06:00,
2013-07-07 10:11:00,76.1,53.2,29.75,NNW,343,0.0,1.0,45,0.00,,,0.00,LWC V2.00 B2112,2013-07-07 17:11:00,
2013-07-07 10:16:00,76.8,49.2,29.75,NNW,343,0.0,0.0,38,0.00,,,0.00,LWC V2.00 B2112,2013-07-07 17:16:00,
2013-07-07 10:21:00,77.4,52.5,29.75,NNW,343,1.0,1.0,42,0.00,,,0.00,LWC V2.00 B2112,2013-07-07 17:21:00,
2013-07-07 10:26:00,77.9,50.2,29.75,NNW,343,0.0,2.0,38,0.00,,,0.00,LWC V2.00 B2112,2013-07-07 17:26:00,
2013-07-07 10:31:00,77.9,48.0,29.74,NNW,346,0.0,2.0,35,0.00,,,0.00,LWC V2.00 B2112,2013-07-07 17:31:00,
2013-07-07 10:36:00,78.3,53.9,29.74,North,359,0.0,2.0,43,0.00,,,0.00,LWC V2.00 B2112,2013-07-07 17:36:00,
2013-07-07 10:41:00,78.8,48.0,29.74,North,359,0.0,1.0,34,0.00,,,0.00,LWC V2.00 B2112,2013-07-07 17:41:00,
2013-07-07 10:46:00,79.4,49.3,29.73,North,359,0.0,0.0,35,0.00,,,0.00,LWC V2.00 B2112,2013-07-07 17:46:00,
2013-07-07 10:51:00,79.8,51.9,29.73,North,359,0.0,0.0,38,0.00,,,0.00,LWC V2.00 B2112,2013-07-07 17:51:00,
2013-07-07 10:56:00,79.8,49.7,29.73,North,359,1.0,2.0,35,0.00,,,0.00,LWC V2.00 B2112,2013-07-07 17:56:00,
2013-07-07 11:01:00,79.9,47.4,29.73,North,356,0.0,1.0,32,0.00,,,0.00,LWC V2.00 B2112,2013-07-07 18:01:00,
2013-07-07 11:06:00,80.3,50.9,29.73,North,354,0.0,1.0,36,0.00,,,0.00,LWC V2.00 B2112,2013-07-07 18:06:00,
2013-07-07 11:11:00,80.7,44.5,29.73,SSE,147,0.0,2.0,28,0.00,,,0.00,LWC V2.00 B2112,2013-07-07 18:11:00,
2013-07-07 11:16:00,81.2,51.7,29.72,SSE,147,0.0,2.0,36,0.00,,,0.00,LWC V2.00 B2112,2013-07-07 18:16:00,
2013-07-07 11:21:00,81.4,47.0,29.72,SSE,161,0.0,2.0,30,0.00,,,0.00,LWC V2.00 B2112,2013-07-07 18:21:00,
2013-07-07 11:26:00,81.6,48.0,29.72,SSE,161,0.0,1.0,31,0.00,,,0.00,LWC V2.00 B2112,2013-07-07 18:26:00,
2013-07-07 11:31:00,81.6,50.5,29.72,SSE,160,0.0,2.0,34,0.00,,,0.00,LWC V2.00 B2112,2013-07-07 18:31:00,
2013-07-07 11:36:00,82.4,45.0,29.72,SSE,160,0.0,0.0,27,0.00,,,0.00,LWC V2.00 B2112,2013-07-07 18:36:00,
2013-07-07 11:41:00,82.8,48.2,29.72,SE,128,0.0,2.0,30,0.00,,,0.00,LWC V2.00 B2112,2013-07-07 18:41:00,
2013-07-07 11:46:00,82.2,43.9,29.71,SE,128,0.0,1.0,26,0.00,,,0.00,LWC V2.00 B2112,2013-07-07 18:46:00,
2013-07-07 11:51:00,82.2,46.8,29.71,SE,128,0.0,2.0,29,0.00,,,0.00,LWC V2.00 B2112,2013-07-07 18:51:00,
2013-07-07 11:56:00,82.4,44.0,29.71,SE,128,0.0,1.0,26,0.00,,,0.00,LWC V2.00 B2112,2013-07-07 18:56:00,
2013-07-07 12:01:00,82.8,49.0,29.70,SE,128,0.0,1.0,31,0.00,,,0.00,LWC V2.00 B2112,2013-07-07 19:01:00,
2013-07-07 12:06:00,83.2,45.7,29.70,SE,128,0.0,1.0,27,0.00,,,0.00,LWC V2.00 B2112,2013-07-07 19:06:00,
2013-07-07 12:11:00,83.2,48.5,29.70,SE,134,0.0,2.0,30,0.00,,,0.00,LWC V2.00 B2112,2013-07-07 19:11:00,
2013-07-07 12:16:00,83.4,44.9,29.70,SE,134,0.0,2.0,26,0.00,,,0.00,LWC V2.00 B2112,2013-07-07 19:16:00,
2013-07-07 12:21:00,83.6,41.9,29.70,SE,134,0.0,0.0,23,0.00,,,0.00,LWC V2.00 B2112,2013-07-07 19:21:00,
2013-07-07 12:26:00,84.0,46.4,29.70,SW,229,0.0,0.0,27,0.00,,,0.00,LWC V2.00 B2112,2013-07-07 19:26:00,
2013-07-07 12:31:00,84.7,48.9,29.69,SW,224,0.0,0.0,29,0.00,,,0.00,LWC V2.00 B2112,2013-07-07 19:31:00,
2013-07-07 12:36:00,85.1,47.3,29.69,South,174,0.0,1.0,27,0.00,,,0.00,LWC V2.00 B2112,2013-07-07 19:36:00,
2013-07-07 12:41:00,85.3,46.5,29.69,South,174,1.0,1.0,26,0.00,,,0.00,LWC V2.00 B2112,2013-07-07 19:41:00,
2013-07-07 12:46:00,85.7,42.4,29.69,East,80,0.0,1.0,22,0.00,,,0.00,LWC V2.00 B2112,2013-07-07 19:46:00,
2013-07-07 12:51:00,86.1,43.9,29.69,East,80,0.0,0.0,23,0.00,,,0.00,LWC V2.00 B2112,2013-07-07 19:51:00,
2013-07-07 12:56:00,86.5,43.1,29.69,East,80,0.0,0.0,22,0.00,,,0.00,LWC V2.00 B2112,2013-07-07 19:56:00,
2013-07-07 13:01:00,86.7,43.3,29.68,NW,309,0.0,1.0,22,0.00,,,0.00,LWC V2.00 B2112,2013-07-07 20:01:00,
2013-07-07 13:06:00,86.5,49.5,29.68,NW,309,0.0,1.0,28,0.00,,,0.00,LWC V2.00 B2112,2013-07-07 20:06:00,
2013-07-07 13:11:00,86.7,44.4,29.68,South,184,0.0,0.0,23,0.00,,,0.00,LWC V2.00 B2112,2013-07-07 20:11:00,
2013-07-07 13:16:00,86.5,41.9,29.67,SE,124,0.0,1.0,21,0.00,,,0.00,LWC V2.00 B2112,2013-07-07 20:16:00,
2013-07-07 13:21:00,86.7,44.4,29.67,ESE,121,0.0,1.0,23,0.00,,,0.00,LWC V2.00 B2112,2013-07-07 20:21:00,
2013-07-07 13:26:00,86.1,45.1,29.67,NW,325,0.0,0.0,24,0.00,,,0.00,LWC V2.00 B2112,2013-07-07 20:26:00,
2013-07-07 13:31:00,86.7,42.1,29.67,SW,227,0.0,1.0,21,0.00,,,0.00,LWC V2.00 B2112,2013-07-07 20:31:00,
2013-07-07 13:36:00,86.7,49.7,29.67,East,88,0.0,4.0,28,0.00,,,0.00,LWC V2.00 B2112,2013-07-07 20:36:00,
2013-07-07 13:41:00,86.7,47.7,29.67,SSE,155,0.0,2.0,26,0.00,,,0.00,LWC V2.00 B2112,2013-07-07 20:41:00,
2013-07-07 13:46:00,87.0,47.9,29.66,SE,136,1.0,7.0,26,0.00,,,0.00,LWC V2.00 B2112,2013-07-07 20:46:00,
2013-07-07 13:51:00,87.2,42.5,29.66,SW,233,0.0,0.0,21,0.00,,,0.00,LWC V2.00 B2112,2013-07-07 20:51:00,
2013-07-07 13:56:00,87.2,47.1,29.66,East,80,2.0,2.0,25,0.00,,,0.00,LWC V2.00 B2112,2013-07-07 20:56:00,
2013-07-07 14:01:00,86.5,46.5,29.66,East,86,0.0,1.0,25,0.00,,,0.00,LWC V2.00 B2112,2013-07-07 21:01:00,
2013-07-07 14:06:00,87.2,44.9,29.66,ENE,69,0.0,4.0,23,0.00,,,0.00,LWC V2.00 B2112,2013-07-07 21:06:00,
2013-07-07 14:11:00,87.2,42.5,29.66,SE,143,0.0,2.0,21,0.00,,,0.00,LWC V2.00 B2112,2013-07-07 21:11:00,
2013-07-07 14:16:00,85.9,47.0,29.66,SSE,164,0.0,1.0,26,0.00,,,0.00,LWC V2.00 B2112,2013-07-07 21:16:00,
2013-07-07 14:21:00,85.9,47.0,29.66,ESE,107,0.0,1.0,26,0.00,,,0.00,LWC V2.00 B2112,2013-07-07 21:21:00,
2013-07-07 14:26:00,86.7,43.3,29.66,SW,219,0.0,6.0,22,0.00,,,0.00,LWC V2.00 B2112,2013-07-07 21:26:00,
2013-07-07 14:31:00,87.4,40.1,29.65,East,89,0.0,1.0,19,0.00,,,0.00,LWC V2.00 B2112,2013-07-07 21:31:00,
2013-07-07 14:36:00,87.6,41.5,29.65,NNW,346,0.0,7.0,20,0.00,,,0.00,LWC V2.00 B2112,2013-07-07 21:36:00,
2013-07-07 14:41:00,87.4,45.0,29.65,ENE,61,4.0,4.0,23,0.00,,,0.00,LWC V2.00 B2112,2013-07-07 21:41:00,
2013-07-07 14:46:00,87.6,45.2,29.65,NNE,28,6.0,6.0,23,0.00,,,0.00,LWC V2.00 B2112,2013-07-07 21:46:00,
2013-07-07 14:51:00,88.2,40.7,29.65,North,1,0.0,4.0,19,0.00,,,0.00,LWC V2.00 B2112,2013-07-07 21:51:00,
2013-07-07 14:56:00,88.4,39.5,29.65,North,3,0.0,0.0,18,0.00,,,0.00,LWC V2.00 B2112,2013-07-07 21:56:00,
2013-07-07 15:01:00,89.0,42.7,29.64,North,3,0.0,0.0,20,0.00,,,0.00,LWC V2.00 B2112,2013-07-07 22:01:00,
2013-07-07 15:06:00,89.3,48.8,29.64,ESE,110,1.0,1.0,25,0.00,,,0.00,LWC V2.00 B2112,2013-07-07 22:06:00,
2013-07-07 15:11:00,88.4,44.7,29.64,SE,133,0.0,0.0,22,0.00,,,0.00,LWC V2.00 B2112,2013-07-07 22:11:00,
2013-07-07 15:16:00,88.6,49.3,29.63,SE,134,0.0,1.0,26,0.00,,,0.00,LWC V2.00 B2112,2013-07-07 22:16:00,
2013-07-07 15:21:00,88.8,48.4,29.63,SE,138,1.0,4.0,25,0.00,,,0.00,LWC V2.00 B2112,2013-07-07 22:21:00,
2013-07-07 15:26:00,87.8,48.6,29.63,SE,134,2.0,4.0,26,0.00,,,0.00,LWC V2.00 B2112,2013-07-07 22:26:00,
2013-07-07 15:31:00,87.4,47.2,29.63,SE,134,0.0,0.0,25,0.00,,,0.00,LWC V2.00 B2112,2013-07-07 22:31:00,
2013-07-07 15:36:00,87.6,47.4,29.63,SE,134,0.0,1.0,25,0.00,,,0.00,LWC V2.00 B2112,2013-07-07 22:36:00,
2013-07-07 15:41:00,87.8,44.2,29.63,ENE,65,1.0,1.0,22,0.00,,,0.00,LWC V2.00 B2112,2013-07-07 22:41:00,
2013-07-07 15:46:00,88.0,46.6,29.62,East,80,0.0,1.0,24,0.00,,,0.00,LWC V2.00 B2112,2013-07-07 22:46:00,
2013-07-07 15:51:00,88.4,49.1,29.62,SSW,195,0.0,1.0,26,0.00,,,0.00,LWC V2.00 B2112,2013-07-07 22:51:00,
2013-07-07 15:56:00,88.4,44.7,29.62,ESE,110,0.0,2.0,22,0.00,,,0.00,LWC V2.00 B2112,2013-07-07 22:56:00,
2013-07-07 16:01:00,87.4,48.3,29.62,SE,134,0.0,1.0,26,0.00,,,0.00,LWC V2.00 B2112,2013-07-07 23:01:00,
2013-07-07 16:06:00,87.4,43.9,29.62,SE,134,0.0,2.0,22,0.00,,,0.00,LWC V2.00 B2112,2013-07-07 23:06:00,
2013-07-07 16:11:00,86.5,47.5,29.62,SE,127,0.0,2.0,26,0.00,,,0.00,LWC V2.00 B2112,2013-07-07 23:11:00,
2013-07-07 16:16:00,84.7,47.0,29.62,East,100,0.0,0.0,27,0.00,,,0.00,LWC V2.00 B2112,2013-07-07 23:16:00,
2013-07-07 16:21:00,84.7,47.0,29.62,East,89,0.0,0.0,27,0.00,,,0.00,LWC V2.00 B2112,2013-07-07 23:21:00,
2013-07-07 16:26:00,84.1,50.2,29.62,East,99,2.0,4.0,31,0.00,,,0.00,LWC V2.00 B2112,2013-07-07 23:26:00,
2013-07-07 16:31:00,82.6,55.8,29.63,ESE,112,0.0,1.0,40,0.00,,,0.00,LWC V2.00 B2112,2013-07-07 23:31:00,
2013-07-07 16:36:00,83.6,46.1,29.63,West,274,7.0,9.0,27,0.00,,,0.00,LWC V2.00 B2112,2013-07-07 23:36:00,
2013-07-07 16:41:00,83.2,42.6,29.63,NW,304,9.0,15.0,24,0.00,,,0.00,LWC V2.00 B2112,2013-07-07 23:41:00,
2013-07-07 16:46:00,82.4,46.0,29.64,NW,311,6.0,10.0,28,0.00,,,0.00,LWC V2.00 B2112,2013-07-07 23:46:00,
2013-07-07 16:51:00,82.0,44.7,29.64,WNW,291,10.0,11.0,27,0.00,,,0.00,LWC V2.00 B2112,2013-07-07 23:51:00,
2013-07-07 16:56:00,82.2,44.9,29.64,NW,326,2.0,9.0,27,0.00,,,0.00,LWC V2.00 B2112,2013-07-07 23:56:00,
2013-07-07 17:01:00,82.0,46.6,29.65,WNW,291,6.0,6.0,29,0.00,,,0.00,LWC V2.00 B2112,2013-07-08 00:01:00,
2013-07-07 17:06:00,82.2,47.7,29.65,WNW,298,6.0,11.0,30,0.00,,,0.00,LWC V2.00 B2112,2013-07-08 00:06:00,
2013-07-07 17:11:00,82.8,45.4,29.65,NW,319,8.0,10.0,27,0.00,,,0.00,LWC V2.00 B2112,2013-07-08 00:11:00,
2013-07-07 17:16:00,82.8,45.4,29.64,West,277,2.0,11.0,27,0.00,,,0.00,LWC V2.00 B2112,2013-07-08 00:16:00,
2013-07-07 17:21:00,82.6,46.2,29.64,NNW,343,8.0,17.0,28,0.00,,,0.00,LWC V2.00 B2112,2013-07-08 00:21:00,
2013-07-07 17:26:00,82.4,46.0,29.64,WNW,288,0.0,10.0,28,0.00,,,0.00,LWC V2.00 B2112,2013-07-08 00:26:00,
2013-07-07 17:31:00,82.2,46.8,29.64,NW,306,4.0,10.0,29,0.00,,,0.00,LWC V2.00 B2112,2013-07-08 00:31:00,
2013-07-07 17:36:00,82.0,44.7,29.64,NNW,330,8.0,16.0,27,0.00,,,0.00,LWC V2.00 B2112,2013-07-08 00:36:00,
2013-07-07 17:41:00,82.0,46.6,29.64,NW,322,2.0,10.0,29,0.00,,,0.00,LWC V2.00 B2112,2013-07-08 00:41:00,
2013-07-07 17:46:00,81.6,45.3,29.64,WNW,287,9.0,11.0,28,0.00,,,0.00,LWC V2.00 B2112,2013-07-08 00:46:00,
2013-07-07 17:51:00,81.6,44.4,29.64,NW,305,7.0,15.0,27,0.00,,,0.00,LWC V2.00 B2112,2013-07-08 00:51:00,
2013-07-07 17:56:00,81.6,43.4,29.64,WNW,301,2.0,8.0,26,0.00,,,0.00,LWC V2.00 B2112,2013-07-08 00:56:00,
2013-07-07 18:01:00,81.8,45.5,29.65,WNW,296,8.0,10.0,28,0.00,,,0.00,LWC V2.00 B2112,2013-07-08 01:01:00,
2013-07-07 18:06:00,81.8,47.3,29.65,NW,311,0.0,1.0,30,0.00,,,0.00,LWC V2.00 B2112,2013-07-08 01:06:00,
2013-07-07 18:11:00,82.0,43.7,29.65,NW,316,0.0,0.0,26,0.00,,,0.00,LWC V2.00 B2112,2013-07-08 01:11:00,
2013-07-07 18:16:00,81.6,46.2,29.65,NW,318,1.0,6.0,29,0.00,,,0.00,LWC V2.00 B2112,2013-07-08 01:16:00,
2013-07-07 18:21:00,81.6,45.3,29.65,WNW,295,8.0,8.0,28,0.00,,,0.00,LWC V2.00 B2112,2013-07-08 01:21:00,
2013-07-07 18:26:00,81.4,46.1,29.65,NW,320,1.0,6.0,29,0.00,,,0.00,LWC V2.00 B2112,2013-07-08 01:26:00,
2013-07-07 18:31:00,81.2,44.0,29.65,NW,308,7.0,8.0,27,0.00,,,0.00,LWC V2.00 B2112,2013-07-08 01:31:00,
2013-07-07 18:36:00,81.2,45.0,29.65,NNW,337,7.0,9.0,28,0.00,,,0.00,LWC V2.00 B2112,2013-07-08 01:36:00,
2013-07-07 18:41:00,81.1,44.9,29.65,NW,306,2.0,13.0,28,0.00,,,0.00,LWC V2.00 B2112,2013-07-08 01:41:00,
2013-07-07 18:46:00,81.1,44.9,29.66,North,6,9.0,9.0,28,0.00,,,0.00,LWC V2.00 B2112,2013-07-08 01:46:00,
2013-07-07 18:51:00,80.9,44.7,29.66,NW,323,8.0,14.0,28,0.00,,,0.00,LWC V2.00 B2112,2013-07-08 01:51:00,
2013-07-07 18:56:00,80.5,47.1,29.66,WNW,291,2.0,8.0,31,0.00,,,0.00,LWC V2.00 B2112,2013-07-08 01:56:00,
2013-07-07 19:01:00,80.5,45.3,29.67,WNW,299,7.0,8.0,29,0.00,,,0.00,LWC V2.00 B2112,2013-07-08 02:01:00,
2013-07-07 19:06:00,80.3,45.1,29.67,NW,316,0.0,7.0,29,0.00,,,0.00,LWC V2.00 B2112,2013-07-08 02:06:00,
2013-07-07 19:11:00,80.1,46.7,29.67,WNW,282,0.0,7.0,31,0.00,,,0.00,LWC V2.00 B2112,2013-07-08 02:11:00,
2013-07-07 19:16:00,79.8,47.3,29.66,WNW,282,0.0,0.0,32,0.00,,,0.00,LWC V2.00 B2112,2013-07-08 02:16:00,
2013-07-07 19:21:00,78.8,51.0,29.66,WNW,282,0.0,0.0,38,0.00,,,0.00,LWC V2.00 B2112,2013-07-08 02:21:00,
2013-07-07 19:26:00,77.4,55.0,29.66,WNW,282,0.0,0.0,46,0.00,,,0.00,LWC V2.00 B2112,2013-07-08 02:26:00,
2013-07-07 19:31:00,76.8,52.6,29.67,WNW,282,0.0,0.0,43,0.00,,,0.00,LWC V2.00 B2112,2013-07-08 02:31:00,
2013-07-07 19:36:00,76.3,54.0,29.67,WNW,282,0.0,0.0,46,0.00,,,0.00,LWC V2.00 B2112,2013-07-08 02:36:00,
2013-07-07 19:41:00,76.0,54.3,29.67,WNW,282,0.0,0.0,47,0.00,,,0.00,LWC V2.00 B2112,2013-07-08 02:41:00,
2013-07-07 19:46:00,75.8,55.3,29.67,WNW,282,0.0,0.0,49,0.00,,,0.00,LWC V2.00 B2112,2013-07-08 02:46:00,
2013-07-07 19:51:00,75.1,55.7,29.67,WNW,282,0.0,1.0,51,0.00,,,0.00,LWC V2.00 B2112,2013-07-08 02:51:00,
2013-07-07 19:56:00,74.4,56.7,29.67,WNW,282,0.0,0.0,54,0.00,,,0.00,LWC V2.00 B2112,2013-07-08 02:56:00,
2013-07-07 20:01:00,74.0,57.8,29.69,WNW,282,0.0,0.0,57,0.00,,,0.00,LWC V2.00 B2112,2013-07-08 03:01:00,
2013-07-07 20:06:00,73.7,56.5,29.69,WNW,282,0.0,1.0,55,0.00,,,0.00,LWC V2.00 B2112,2013-07-08 03:06:00,
2013-07-07 20:11:00,73.5,54.8,29.69,WNW,282,1.0,4.0,52,0.00,,,0.00,LWC V2.00 B2112,2013-07-08 03:11:00,
2013-07-07 20:16:00,73.5,57.8,29.68,WSW,237,0.0,4.0,58,0.00,,,0.00,LWC V2.00 B2112,2013-07-08 03:16:00,
2013-07-07 20:21:00,73.2,57.0,29.68,SW,236,0.0,0.0,57,0.00,,,0.00,LWC V2.00 B2112,2013-07-08 03:21:00,
2013-07-07 20:26:00,73.0,55.9,29.68,SW,236,0.0,0.0,55,0.00,,,0.00,LWC V2.00 B2112,2013-07-08 03:26:00,
2013-07-07 20:31:00,72.7,57.1,29.69,SW,236,0.0,0.0,58,0.00,,,0.00,LWC V2.00 B2112,2013-07-08 03:31:00,
2013-07-07 20:36:00,71.5,60.0,29.69,South,185,0.0,0.0,67,0.00,,,0.01,LWC V2.00 B2112,2013-07-08 03:36:00,
2013-07-07 20:41:00,71.1,60.8,29.69,South,185,0.0,0.0,70,0.00,,,0.02,LWC V2.00 B2112,2013-07-08 03:41:00,
2013-07-07 20:46:00,68.4,58.2,29.69,South,185,0.0,0.0,70,0.09,,,0.03,LWC V2.00 B2112,2013-07-08 03:46:00,
2013-07-07 20:51:00,67.3,57.2,29.69,South,182,0.0,0.0,70,0.08,,,0.03,LWC V2.00 B2112,2013-07-08 03:51:00,
2013-07-07 20:56:00,66.3,61.6,29.69,South,182,0.0,0.0,85,0.05,,,0.03,LWC V2.00 B2112,2013-07-08 03:56:00,
2013-07-07 21:01:00,65.8,61.5,29.70,South,182,0.0,0.0,86,0.00,,,0.03,LWC V2.00 B2112,2013-07-08 04:01:00,
2013-07-07 21:06:00,65.5,61.2,29.70,South,184,1.0,2.0,86,0.00,,,0.03,LWC V2.00 B2112,2013-07-08 04:06:00,
2013-07-07 21:11:00,65.2,61.2,29.70,South,184,0.0,0.0,87,0.00,,,0.03,LWC V2.00 B2112,2013-07-08 04:11:00,
2013-07-07 21:16:00,64.8,60.8,29.71,South,184,0.0,0.0,87,0.00,,,0.03,LWC V2.00 B2112,2013-07-08 04:16:00,
2013-07-07 21:21:00,64.5,60.9,29.71,South,184,0.0,0.0,88,0.00,,,0.03,LWC V2.00 B2112,2013-07-08 04:21:00,
2013-07-07 21:26:00,64.2,60.6,29.71,South,184,0.0,0.0,88,0.00,,,0.03,LWC V2.00 B2112,2013-07-08 04:26:00,
2013-07-07 21:31:00,64.0,60.4,29.72,South,184,0.0,0.0,88,0.00,,,0.03,LWC V2.00 B2112,2013-07-08 04:31:00,
2013-07-07 21:36:00,63.9,60.9,29.72,South,184,0.0,0.0,90,0.00,,,0.03,LWC V2.00 B2112,2013-07-08 04:36:00,
2013-07-07 21:41:00,63.5,60.2,29.72,South,184,0.0,0.0,89,0.00,,,0.03,LWC V2.00 B2112,2013-07-08 04:41:00,
2013-07-07 21:46:00,63.4,60.4,29.73,South,184,0.0,0.0,90,0.00,,,0.03,LWC V2.00 B2112,2013-07-08 04:46:00,
2013-07-07 21:51:00,63.2,60.8,29.73,South,184,0.0,0.0,92,0.00,,,0.03,LWC V2.00 B2112,2013-07-08 04:51:00,
2013-07-07 21:56:00,63.1,60.1,29.73,South,184,0.0,0.0,90,0.00,,,0.03,LWC V2.00 B2112,2013-07-08 04:56:00,
2013-07-07 22:01:00,62.7,60.0,29.73,South,184,0.0,0.0,91,0.00,,,0.03,LWC V2.00 B2112,2013-07-08 05:01:00,
2013-07-07 22:06:00,62.3,59.3,29.73,South,184,0.0,1.0,90,0.00,,,0.03,LWC V2.00 B2112,2013-07-08 05:06:00,
2013-07-07 22:11:00,62.1,59.4,29.73,South,184,0.0,0.0,91,0.00,,,0.03,LWC V2.00 B2112,2013-07-08 05:11:00,
2013-07-07 22:16:00,62.0,59.3,29.73,South,184,0.0,0.0,91,0.00,,,0.03,LWC V2.00 B2112,2013-07-08 05:16:00,
2013-07-07 22:21:00,61.6,58.6,29.73,South,184,0.0,0.0,90,0.00,,,0.03,LWC V2.00 B2112,2013-07-08 05:21:00,
2013-07-07 22:26:00,61.3,58.3,29.73,South,184,0.0,0.0,90,0.00,,,0.03,LWC V2.00 B2112,2013-07-08 05:26:00,
2013-07-07 22:31:00,61.2,59.2,29.73,South,184,0.0,0.0,93,0.00,,,0.03,LWC V2.00 B2112,2013-07-08 05:31:00,
2013-07-07 22:36:00,61.0,58.3,29.73,South,184,0.0,0.0,91,0.00,,,0.03,LWC V2.00 B2112,2013-07-08 05:36:00,
2013-07-07 22:41:00,60.7,58.1,29.73,South,184,0.0,0.0,91,0.00,,,0.03,LWC V2.00 B2112,2013-07-08 05:41:00,
2013-07-07 22:46:00,60.4,57.5,29.73,South,184,0.0,0.0,90,0.00,,,0.03,LWC V2.00 B2112,2013-07-08 05:46:00,
2013-07-07 22:51:00,60.2,57.6,29.73,South,184,0.0,0.0,91,0.00,,,0.03,LWC V2.00 B2112,2013-07-08 05:51:00,
2013-07-07 22:56:00,60.1,57.2,29.73,South,184,0.0,0.0,90,0.00,,,0.03,LWC V2.00 B2112,2013-07-08 05:56:00,
2013-07-07 23:01:00,59.9,57.0,29.73,South,184,0.0,0.0,90,0.00,,,0.03,LWC V2.00 B2112,2013-07-08 06:01:00,
2013-07-07 23:06:00,59.8,57.2,29.73,South,184,0.0,0.0,91,0.00,,,0.03,LWC V2.00 B2112,2013-07-08 06:06:00,
2013-07-07 23:11:00,59.6,57.0,29.73,South,184,0.0,0.0,91,0.00,,,0.03,LWC V2.00 B2112,2013-07-08 06:11:00,
2013-07-07 23:16:00,59.5,56.6,29.73,South,184,0.0,0.0,90,0.00,,,0.03,LWC V2.00 B2112,2013-07-08 06:16:00,
2013-07-07 23:21:00,59.5,56.9,29.73,South,184,0.0,0.0,91,0.00,,,0.03,LWC V2.00 B2112,2013-07-08 06:21:00,
2013-07-07 23:26:00,59.6,56.0,29.73,SW,215,0.0,2.0,88,0.00,,,0.03,LWC V2.00 B2112,2013-07-08 06:26:00,
2013-07-07 23:31:00,59.9,55.0,29.73,SW,215,0.0,0.0,84,0.00,,,0.03,LWC V2.00 B2112,2013-07-08 06:31:00,
2013-07-07 23:36:00,61.3,53.3,29.73,West,265,6.0,7.0,75,0.00,,,0.03,LWC V2.00 B2112,2013-07-08 06:36:00,
2013-07-07 23:41:00,61.3,55.4,29.73,West,268,0.0,4.0,81,0.00,,,0.03,LWC V2.00 B2112,2013-07-08 06:41:00,
2013-07-07 23:46:00,61.6,55.0,29.73,West,268,0.0,2.0,79,0.00,,,0.03,LWC V2.00 B2112,2013-07-08 06:46:00,
2013-07-07 23:51:00,62.3,55.3,29.73,West,268,2.0,2.0,78,0.00,,,0.03,LWC V2.00 B2112,2013-07-08 06:51:00,
2013-07-07 23:56:00,62.6,54.2,29.73,West,268,2.0,6.0,74,0.00,,,0.03,LWC V2.00 B2112,2013-07-08 06:56:00,